Tracking 31027 objects as of 19-Jul-2025
HD Live streaming from Space Station
objects crossing your sky now

CZ-4B DEB

Track CZ-4B DEB now!
10-day predictions


NORAD ID: 29538
Int'l Code: 2006-015E
Perigee: 522.3 km
Apogee: 618.4 km
Inclination: 98.0 °
Period: 95.9 minutes
Semi major axis: 6941 km
RCS: 0.0184 m2 (small)
Launch date: April 26, 2006
Source: People's Republic of China (PRC)
Launch site: Taiyaun Space Center, China (TSC)

Note: This is SATELLITE DEBRIS
Your satellite tracking list
COSMOS 1743
Track 1 satellite(s)




NASA's NSSDC Master Catalog

Two Line Element Set (TLE):
1 29538U 06015E   25199.54121670  .00019314  00000-0  14324-2 0  9995
2 29538  98.0422 315.8919 0069215 135.6594 225.0201 15.01190778 18556
Source of the keplerian elements: AFSPC